QPF
0.00 0.00 0.00 0.00 0.00 0.00 0.00 0.00 0.00 0.00 0.00 0.00 0.00 0.00 0.00 0.00 0.00 0.00 0.00 0.00 0.00 0.00 0.00 0.00 0.00 0.00 0.00 0.00 0.01 0.01 0.01 0.01 0.01 0.01 0.01 0.01 0.01 0.02 0.03 0.03 0.02 0.03 0.05
0.00 0.00 0.00 0.00 0.00 0.00 0.00 0.00 0.00 0.00 0.00 0.00 0.00 0.00 0.00 0.00 0.00 0.00 0.00 0.00 0.00 0.00 0.00 0.00 0.00 0.00 0.00 0.00 0.00 0.00 0.00 0.00 0.01 0.01 0.01 0.01 0.03 0.03 0.04 0.02 0.02 0.02 0.05
0.00 0.00 0.00 0.00 0.00 0.00 0.00 0.00 0.00 0.00 0.00 0.00 0.00 0.00 0.00 0.00 0.00 0.00 0.00 0.00 0.00 0.00 0.00 0.00 0.00 0.00 0.00 0.00 0.00 0.00 0.00 0.00 0.01 0.01 0.00 0.00 0.02 0.05 0.04 0.02 0.02 0.02 0.03
0.00 0.00 0.00 0.00 0.00 0.00 0.00 0.00 0.00 0.00 0.00 0.00 0.00 0.00 0.00 0.00 0.00 0.00 0.00 0.00 0.00 0.00 0.00 0.00 0.00 0.00 0.00 0.00 0.00 0.00 0.00 0.01 0.01 0.01 0.00 0.00 0.01 0.03 0.03 0.02 0.02 0.01 0.01
0.00 0.00 0.00 0.00 0.00 0.00 0.00 0.00 0.00 0.00 0.00 0.00 0.00 0.00 0.00 0.00 0.00 0.00 0.00 0.00 0.00 0.00 0.00 0.00 0.00 0.00 0.00 0.00 0.00 0.00 0.00 0.01 0.01 0.01 0.00 0.00 0.01 0.02 0.02 0.01 0.01 0.01 0.01
0.00 0.00 0.00 0.00 0.00 0.00 0.00 0.00 0.00 0.00 0.00 0.00 0.00 0.00 0.00 0.00 0.00 0.00 0.00 0.00 0.00 0.00 0.01 0.01 0.01 0.00 0.00 0.00 0.00 0.00 0.00 0.01 0.01 0.01 0.00 0.00 0.01 0.02 0.01 0.01 0.01 0.01 0.01
0.00 0.00 0.00 0.00 0.00 0.00 0.00 0.00 0.00 0.00 0.00 0.00 0.00 0.00 0.00 0.00 0.00 0.00 0.00 0.00 0.00 0.00 0.01 0.01 0.01 0.00 0.00 0.00 0.00 0.00 0.00 0.01 0.01 0.01 0.00 0.00 0.00 0.02 0.01 0.01 0.01 0.00 0.00
0.00 0.00 0.00 0.01 0.00 0.00 0.00 0.00 0.00 0.00 0.00 0.00 0.00 0.00 0.00 0.00 0.00 0.00 0.00 0.00 0.00 0.00 0.00 0.00 0.00 0.00 0.00 0.00 0.00 0.00 0.01 0.01 0.01 0.01 0.00 0.00 0.01 0.02 0.02 0.01 0.01 0.01 0.00
0.00 0.00 0.00 0.00 0.01 0.01 0.00 0.00 0.00 0.00 0.00 0.00 0.01 0.01 0.01 0.01 0.01 0.01 0.01 0.01 0.01 0.01 0.01 0.01 0.01 0.01 0.01 0.01 0.01 0.01 0.00 0.01 0.01 0.01 0.01 0.00 0.02 0.03 0.02 0.01 0.01 0.01 0.01
0.01 0.00 0.00 0.00 0.00 0.00 0.00 0.01 0.00 0.01 0.00 0.01 0.01 0.01 0.01 0.01 0.01 0.02 0.02 0.02 0.03 0.03 0.03 0.03 0.02 0.01 0.01 0.01 0.01 0.01 0.01 0.01 0.01 0.01 0.01 0.01 0.01 0.03 0.04 0.03 0.01 0.01 0.01
0.03 0.02 0.01 0.01 0.00 0.00 0.00 0.01 0.01 0.01 0.01 0.01 0.01 0.01 0.01 0.01 0.01 0.02 0.02 0.03 0.03 0.04 0.04 0.05 0.04 0.02 0.02 0.02 0.01 0.01 0.01 0.01 0.01 0.01 0.01 0.01 0.02 0.04 0.06 0.05 0.03 0.02 0.02
0.08 0.06 0.04 0.01 0.01 0.01 0.01 0.02 0.01 0.01 0.01 0.01 0.01 0.02 0.02 0.01 0.01 0.02 0.03 0.05 0.06 0.09 0.10 0.09 0.08 0.06 0.04 0.03 0.02 0.02 0.01 0.01 0.01 0.01 0.01 0.01 0.02 0.05 0.10 0.09 0.06 0.04 0.02
0.10 0.09 0.07 0.04 0.04 0.05 0.05 0.06 0.05 0.04 0.04 0.04 0.04 0.04 0.04 0.04 0.05 0.04 0.04 0.04 0.06 0.11 0.14 0.14 0.15 0.12 0.09 0.06 0.04 0.03 0.02 0.02 0.01 0.01 0.01 0.01 0.02 0.04 0.09 0.11 0.08 0.06 0.04
0.17 0.14 0.09 0.07 0.08 0.10 0.10 0.10 0.10 0.11 0.10 0.10 0.10 0.11 0.10 0.09 0.08 0.07 0.08 0.09 0.10 0.13 0.17 0.17 0.17 0.18 0.15 0.11 0.08 0.05 0.04 0.03 0.01 0.01 0.01 0.01 0.02 0.04 0.06 0.09 0.10 0.08 0.06
0.18 0.24 0.21 0.17 0.16 0.17 0.19 0.21 0.22 0.20 0.18 0.21 0.20 0.16 0.13 0.13 0.13 0.14 0.13 0.13 0.12 0.14 0.17 0.22 0.23 0.21 0.19 0.18 0.15 0.10 0.07 0.05 0.03 0.02 0.01 0.02 0.03 0.04 0.06 0.10 0.10 0.10 0.09
0.22 0.27 0.29 0.25 0.26 0.28 0.28 0.30 0.30 0.28 0.23 0.23 0.23 0.18 0.16 0.16 0.17 0.18 0.17 0.15 0.14 0.12 0.14 0.17 0.20 0.22 0.22 0.24 0.21 0.15 0.12 0.11 0.08 0.05 0.04 0.04 0.04 0.05 0.09 0.13 0.14 0.13 0.12
0.21 0.25 0.27 0.27 0.33 0.38 0.34 0.29 0.27 0.24 0.20 0.21 0.21 0.17 0.16 0.15 0.16 0.17 0.15 0.14 0.13 0.12 0.11 0.11 0.14 0.17 0.20 0.19 0.15 0.13 0.12 0.13 0.12 0.09 0.08 0.06 0.04 0.05 0.09 0.13 0.16 0.16 0.16
0.15 0.17 0.19 0.21 0.26 0.31 0.28 0.23 0.20 0.17 0.15 0.14 0.13 0.12 0.14 0.15 0.17 0.16 0.11 0.09 0.09 0.08 0.08 0.08 0.09 0.10 0.11 0.13 0.13 0.12 0.11 0.12 0.12 0.10 0.09 0.06 0.05 0.04 0.07 0.14 0.17 0.19 0.18
0.11 0.14 0.14 0.15 0.16 0.19 0.22 0.24 0.21 0.18 0.15 0.12 0.10 0.10 0.10 0.10 0.09 0.08 0.06 0.07 0.07 0.07 0.06 0.06 0.08 0.09 0.09 0.09 0.09 0.09 0.09 0.11 0.09 0.08 0.08 0.05 0.05 0.04 0.05 0.10 0.17 0.20 0.21
0.11 0.12 0.11 0.09 0.11 0.15 0.19 0.18 0.17 0.15 0.14 0.13 0.12 0.10 0.08 0.06 0.06 0.05 0.05 0.06 0.06 0.06 0.06 0.05 0.06 0.07 0.07 0.08 0.09 0.09 0.09 0.10 0.10 0.08 0.06 0.06 0.05 0.05 0.06 0.08 0.10 0.14 0.21
0.06 0.05 0.06 0.07 0.10 0.10 0.10 0.10 0.10 0.11 0.11 0.10 0.08 0.06 0.05 0.05 0.05 0.06 0.06 0.06 0.06 0.04 0.04 0.04 0.04 0.04 0.05 0.06 0.07 0.08 0.08 0.08 0.10 0.09 0.07 0.06 0.05 0.06 0.06 0.08 0.09 0.08 0.09
0.03 0.03 0.04 0.04 0.04 0.04 0.04 0.05 0.07 0.09 0.09 0.09 0.09 0.08 0.06 0.04 0.02 0.02 0.03 0.04 0.04 0.04 0.04 0.04 0.03 0.04 0.05 0.07 0.07 0.08 0.07 0.06 0.06 0.08 0.09 0.07 0.06 0.08 0.07 0.07 0.09 0.07 0.05
0.01 0.01 0.01 0.01 0.02 0.02 0.02 0.03 0.03 0.04 0.03 0.05 0.07 0.07 0.04 0.01 0.01 0.01 0.01 0.02 0.03 0.04 0.06 0.07 0.06 0.05 0.05 0.07 0.09 0.10 0.09 0.05 0.04 0.04 0.06 0.07 0.07 0.07 0.06 0.06 0.06 0.06 0.08
0.00 0.00 0.00 0.01 0.01 0.01 0.01 0.01 0.01 0.01 0.01 0.01 0.02 0.02 0.02 0.01 0.02 0.01 0.01 0.02 0.02 0.02 0.02 0.03 0.04 0.06 0.05 0.06 0.08 0.09 0.10 0.08 0.07 0.05 0.05 0.07 0.07 0.07 0.06 0.06 0.05 0.05 0.08
0.00 0.00 0.00 0.01 0.01 0.00 0.00 0.00 0.00 0.00 0.00 0.00 0.01 0.01 0.01 0.01 0.01 0.01 0.01 0.00 0.00 0.01 0.01 0.01 0.01 0.02 0.04 0.05 0.08 0.10 0.11 0.09 0.08 0.07 0.05 0.06 0.07 0.06 0.06 0.06 0.06 0.06 0.07
0.00 0.01 0.00 0.00 0.00 0.00 0.00 0.00 0.00 0.00 0.00 0.00 0.00 0.00 0.00 0.00 0.00 0.00 0.00 0.00 0.00 0.00 0.00 0.00 0.00 0.01 0.01 0.02 0.03 0.05 0.08 0.11 0.10 0.08 0.06 0.06 0.06 0.06 0.07 0.07 0.06 0.05 0.07
MSLP
1010.55 1010.38 1010.35 1010.49 1010.75 1011.08 1011.42 1011.71 1011.92 1012.05 1012.14 1012.23 1012.37 1012.59 1012.89 1013.27 1013.67 1014.07 1014.40 1014.66 1014.83 1014.93 1015.00 1015.06 1015.13 1015.24 1015.38 1015.55 1015.72 1015.88 1016.02 1016.14 1016.24 1016.34 1016.44 1016.55 1016.67 1016.80 1016.92 1017.04 1017.15 1017.27 1017.41
1010.11 1010.03 1010.10 1010.33 1010.69 1011.10 1011.51 1011.85 1012.09 1012.26 1012.36 1012.47 1012.63 1012.87 1013.19 1013.57 1013.98 1014.36 1014.67 1014.90 1015.05 1015.14 1015.20 1015.26 1015.34 1015.47 1015.62 1015.79 1015.95 1016.10 1016.22 1016.32 1016.42 1016.52 1016.64 1016.78 1016.93 1017.08 1017.22 1017.34 1017.45 1017.56 1017.68
1009.67 1009.68 1009.84 1010.17 1010.62 1011.13 1011.62 1012.02 1012.33 1012.53 1012.67 1012.80 1012.98 1013.22 1013.55 1013.92 1014.30 1014.64 1014.92 1015.11 1015.23 1015.30 1015.35 1015.42 1015.53 1015.67 1015.83 1016.01 1016.17 1016.30 1016.41 1016.50 1016.59 1016.71 1016.85 1017.01 1017.19 1017.36 1017.52 1017.65 1017.76 1017.87 1017.98
1009.32 1009.41 1009.66 1010.08 1010.62 1011.22 1011.78 1012.26 1012.61 1012.86 1013.03 1013.18 1013.36 1013.60 1013.90 1014.24 1014.58 1014.88 1015.11 1015.26 1015.35 1015.41 1015.47 1015.55 1015.69 1015.85 1016.04 1016.22 1016.38 1016.50 1016.60 1016.69 1016.78 1016.90 1017.06 1017.24 1017.44 1017.64 1017.81 1017.96 1018.07 1018.18 1018.30
1009.15 1009.30 1009.62 1010.12 1010.73 1011.39 1012.01 1012.53 1012.92 1013.19 1013.37 1013.53 1013.71 1013.93 1014.21 1014.51 1014.80 1015.05 1015.23 1015.35 1015.42 1015.48 1015.56 1015.67 1015.84 1016.04 1016.25 1016.44 1016.60 1016.73 1016.82 1016.89 1016.99 1017.11 1017.28 1017.48 1017.69 1017.90 1018.08 1018.23 1018.36 1018.48 1018.61
1009.21 1009.39 1009.76 1010.30 1010.96 1011.64 1012.28 1012.81 1013.20 1013.47 1013.66 1013.81 1013.97 1014.17 1014.42 1014.68 1014.93 1015.13 1015.28 1015.38 1015.45 1015.53 1015.63 1015.79 1015.99 1016.22 1016.46 1016.67 1016.83 1016.95 1017.03 1017.11 1017.20 1017.32 1017.49 1017.69 1017.90 1018.11 1018.30 1018.45 1018.59 1018.73 1018.89
1009.48 1009.69 1010.08 1010.63 1011.28 1011.96 1012.57 1013.07 1013.43 1013.68 1013.84 1013.97 1014.12 1014.30 1014.52 1014.76 1014.98 1015.16 1015.29 1015.39 1015.47 1015.56 1015.70 1015.88 1016.12 1016.38 1016.64 1016.86 1017.03 1017.15 1017.23 1017.30 1017.38 1017.50 1017.67 1017.86 1018.07 1018.27 1018.45 1018.60 1018.74 1018.90 1019.08
1009.92 1010.15 1010.54 1011.07 1011.68 1012.30 1012.85 1013.28 1013.59 1013.79 1013.92 1014.03 1014.17 1014.34 1014.55 1014.77 1014.98 1015.15 1015.27 1015.37 1015.46 1015.57 1015.73 1015.94 1016.20 1016.49 1016.76 1016.98 1017.16 1017.27 1017.35 1017.42 1017.50 1017.62 1017.78 1017.96 1018.16 1018.34 1018.50 1018.65 1018.79 1018.96 1019.16
1010.48 1010.71 1011.09 1011.58 1012.12 1012.65 1013.10 1013.45 1013.68 1013.82 1013.92 1014.02 1014.16 1014.33 1014.55 1014.77 1014.97 1015.13 1015.25 1015.34 1015.43 1015.54 1015.71 1015.93 1016.20 1016.49 1016.76 1016.98 1017.16 1017.27 1017.36 1017.43 1017.52 1017.64 1017.79 1017.97 1018.15 1018.32 1018.47 1018.60 1018.74 1018.91 1019.13
1011.06 1011.31 1011.66 1012.09 1012.55 1012.98 1013.32 1013.57 1013.73 1013.82 1013.89 1013.99 1014.13 1014.32 1014.54 1014.76 1014.96 1015.11 1015.22 1015.30 1015.37 1015.47 1015.63 1015.84 1016.09 1016.36 1016.62 1016.84 1017.01 1017.13 1017.22 1017.31 1017.41 1017.54 1017.70 1017.88 1018.05 1018.21 1018.35 1018.47 1018.60 1018.77 1019.00
1011.61 1011.88 1012.22 1012.59 1012.96 1013.28 1013.52 1013.68 1013.76 1013.81 1013.87 1013.97 1014.13 1014.33 1014.57 1014.79 1014.98 1015.12 1015.20 1015.25 1015.29 1015.36 1015.48 1015.66 1015.88 1016.12 1016.35 1016.56 1016.72 1016.84 1016.95 1017.05 1017.17 1017.32 1017.50 1017.68 1017.86 1018.01 1018.15 1018.27 1018.40 1018.57 1018.80
1012.09 1012.39 1012.71 1013.04 1013.32 1013.55 1013.70 1013.78 1013.81 1013.84 1013.89 1014.00 1014.17 1014.39 1014.63 1014.85 1015.02 1015.13 1015.18 1015.19 1015.19 1015.22 1015.30 1015.43 1015.61 1015.81 1016.01 1016.19 1016.34 1016.46 1016.57 1016.69 1016.83 1017.00 1017.19 1017.39 1017.58 1017.75 1017.89 1018.02 1018.15 1018.33 1018.56
1012.49 1012.81 1013.13 1013.41 1013.63 1013.78 1013.86 1013.88 1013.88 1013.89 1013.95 1014.07 1014.25 1014.47 1014.71 1014.91 1015.06 1015.14 1015.16 1015.13 1015.10 1015.09 1015.13 1015.21 1015.34 1015.50 1015.66 1015.80 1015.93 1016.04 1016.15 1016.28 1016.42 1016.60 1016.81 1017.02 1017.22 1017.41 1017.57 1017.71 1017.86 1018.04 1018.28
1012.81 1013.15 1013.45 1013.69 1013.86 1013.96 1013.99 1013.98 1013.96 1013.98 1014.04 1014.16 1014.35 1014.56 1014.77 1014.95 1015.08 1015.14 1015.13 1015.09 1015.04 1015.00 1015.01 1015.06 1015.15 1015.26 1015.38 1015.49 1015.58 1015.66 1015.75 1015.85 1015.98 1016.16 1016.35 1016.57 1016.78 1016.98 1017.17 1017.34 1017.51 1017.71 1017.96
1013.06 1013.40 1013.68 1013.89 1014.02 1014.08 1014.08 1014.07 1014.05 1014.07 1014.13 1014.26 1014.42 1014.61 1014.80 1014.95 1015.06 1015.10 1015.09 1015.06 1015.02 1014.99 1014.99 1015.02 1015.09 1015.16 1015.23 1015.29 1015.33 1015.36 1015.39 1015.45 1015.54 1015.67 1015.84 1016.04 1016.25 1016.46 1016.66 1016.86 1017.07 1017.30 1017.56
1013.27 1013.58 1013.83 1014.00 1014.10 1014.14 1014.14 1014.13 1014.13 1014.15 1014.22 1014.33 1014.46 1014.62 1014.77 1014.89 1014.98 1015.03 1015.04 1015.04 1015.04 1015.05 1015.07 1015.11 1015.16 1015.20 1015.23 1015.22 1015.20 1015.16 1015.12 1015.09 1015.11 1015.17 1015.27 1015.42 1015.60 1015.80 1016.01 1016.24 1016.48 1016.76 1017.06
1013.44 1013.70 1013.90 1014.04 1014.12 1014.16 1014.17 1014.18 1014.20 1014.23 1014.29 1014.37 1014.47 1014.57 1014.67 1014.76 1014.84 1014.91 1014.97 1015.03 1015.09 1015.15 1015.23 1015.29 1015.34 1015.35 1015.33 1015.26 1015.16 1015.03 1014.89 1014.76 1014.67 1014.63 1014.64 1014.71 1014.83 1015.00 1015.21 1015.46 1015.74 1016.06 1016.41
1013.60 1013.79 1013.93 1014.02 1014.09 1014.14 1014.18 1014.22 1014.27 1014.31 1014.36 1014.40 1014.45 1014.49 1014.54 1014.60 1014.67 1014.76 1014.87 1014.99 1015.13 1015.27 1015.39 1015.49 1015.54 1015.53 1015.46 1015.33 1015.15 1014.92 1014.68 1014.44 1014.22 1014.05 1013.95 1013.91 1013.95 1014.07 1014.26 1014.52 1014.84 1015.20 1015.61
1013.74 1013.85 1013.93 1013.99 1014.05 1014.11 1014.19 1014.27 1014.35 1014.41 1014.44 1014.45 1014.43 1014.41 1014.40 1014.41 1014.47 1014.58 1014.73 1014.92 1015.13 1015.33 1015.50 1015.62 1015.68 1015.65 1015.54 1015.35 1015.10 1014.79 1014.45 1014.10 1013.76 1013.46 1013.22 1013.06 1013.00 1013.05 1013.20 1013.45 1013.79 1014.20 1014.67
1013.87 1013.90 1013.92 1013.95 1014.01 1014.10 1014.22 1014.35 1014.46 1014.53 1014.56 1014.52 1014.45 1014.36 1014.28 1014.25 1014.29 1014.39 1014.57 1014.80 1015.06 1015.30 1015.50 1015.64 1015.69 1015.64 1015.50 1015.27 1014.96 1014.59 1014.17 1013.73 1013.28 1012.86 1012.50 1012.22 1012.04 1012.00 1012.09 1012.31 1012.66 1013.12 1013.64
1013.99 1013.95 1013.92 1013.92 1013.98 1014.09 1014.26 1014.44 1014.59 1014.68 1014.70 1014.64 1014.51 1014.36 1014.22 1014.13 1014.12 1014.21 1014.39 1014.63 1014.90 1015.15 1015.36 1015.49 1015.53 1015.47 1015.31 1015.05 1014.72 1014.32 1013.86 1013.36 1012.84 1012.32 1011.84 1011.44 1011.15 1011.00 1011.01 1011.19 1011.53 1012.00 1012.57
1014.09 1013.99 1013.92 1013.90 1013.96 1014.10 1014.31 1014.53 1014.73 1014.85 1014.87 1014.78 1014.61 1014.40 1014.20 1014.06 1014.00 1014.05 1014.20 1014.42 1014.66 1014.89 1015.08 1015.19 1015.21 1015.13 1014.97 1014.72 1014.39 1014.00 1013.54 1013.02 1012.46 1011.88 1011.31 1010.80 1010.39 1010.13 1010.05 1010.16 1010.46 1010.93 1011.52
1014.16 1014.04 1013.93 1013.89 1013.95 1014.11 1014.34 1014.61 1014.84 1014.99 1015.02 1014.93 1014.73 1014.49 1014.24 1014.04 1013.93 1013.92 1014.02 1014.18 1014.37 1014.56 1014.70 1014.77 1014.77 1014.69 1014.53 1014.31 1014.02 1013.67 1013.25 1012.76 1012.20 1011.59 1010.96 1010.36 1009.84 1009.46 1009.27 1009.29 1009.52 1009.95 1010.54
1014.23 1014.08 1013.94 1013.88 1013.93 1014.10 1014.35 1014.64 1014.90 1015.07 1015.12 1015.04 1014.84 1014.57 1014.29 1014.05 1013.89 1013.82 1013.85 1013.95 1014.08 1014.20 1014.28 1014.31 1014.28 1014.20 1014.06 1013.89 1013.67 1013.39 1013.04 1012.61 1012.08 1011.47 1010.81 1010.14 1009.53 1009.04 1008.72 1008.62 1008.75 1009.11 1009.66
1014.29 1014.13 1013.97 1013.88 1013.91 1014.06 1014.32 1014.61 1014.89 1015.09 1015.16 1015.09 1014.90 1014.63 1014.34 1014.07 1013.87 1013.75 1013.72 1013.75 1013.80 1013.85 1013.88 1013.86 1013.81 1013.72 1013.62 1013.50 1013.35 1013.16 1012.91 1012.55 1012.09 1011.51 1010.84 1010.13 1009.44 1008.84 1008.39 1008.16 1008.17 1008.42 1008.89
1014.38 1014.20 1014.02 1013.90 1013.90 1014.02 1014.25 1014.54 1014.82 1015.03 1015.12 1015.07 1014.90 1014.64 1014.35 1014.07 1013.84 1013.69 1013.60 1013.57 1013.56 1013.55 1013.51 1013.46 1013.38 1013.30 1013.23 1013.16 1013.09 1012.99 1012.83 1012.57 1012.18 1011.65 1011.00 1010.27 1009.52 1008.83 1008.27 1007.89 1007.76 1007.88 1008.23
Thickness
5814 5813 5809 5806 5802 5799 5796 5794 5792 5790 5788 5786 5784 5782 5779 5777 5774 5772 5770 5768 5767 5765 5764 5763 5762 5761 5760 5759 5758 5757 5756 5755 5753 5752 5751 5750 5749 5748 5747 5746 5745 5743 5742
5820 5814 5809 5805 5801 5798 5795 5792 5790 5787 5785 5784 5782 5780 5777 5775 5773 5770 5768 5766 5765 5764 5763 5761 5760 5759 5758 5757 5756 5755 5754 5753 5752 5751 5750 5748 5747 5747 5746 5745 5744 5742 5741
5819 5814 5808 5804 5800 5796 5793 5790 5787 5785 5783 5781 5779 5777 5775 5773 5771 5769 5767 5765 5763 5762 5761 5759 5758 5757 5756 5755 5754 5753 5752 5751 5751 5749 5748 5747 5746 5745 5745 5744 5743 5741 5740
5818 5812 5807 5802 5798 5794 5791 5787 5785 5782 5780 5778 5776 5774 5773 5771 5769 5767 5765 5763 5762 5760 5758 5757 5756 5755 5753 5752 5751 5750 5750 5749 5749 5748 5747 5746 5745 5744 5743 5742 5741 5740 5739
5815 5810 5805 5800 5795 5791 5788 5784 5782 5779 5777 5775 5773 5771 5770 5768 5766 5765 5763 5761 5759 5758 5756 5755 5754 5752 5751 5750 5749 5748 5747 5747 5746 5745 5745 5744 5744 5743 5742 5741 5740 5739 5738
5812 5807 5802 5797 5793 5789 5785 5782 5779 5777 5774 5772 5771 5769 5767 5765 5763 5762 5760 5759 5757 5756 5754 5753 5751 5750 5748 5747 5746 5745 5745 5744 5744 5743 5742 5742 5742 5741 5741 5740 5739 5738 5736
5808 5804 5800 5795 5791 5786 5783 5780 5777 5775 5772 5770 5768 5766 5765 5763 5761 5759 5758 5756 5754 5753 5752 5750 5749 5747 5746 5744 5743 5742 5742 5742 5741 5740 5740 5740 5740 5739 5739 5738 5738 5736 5735
5805 5801 5797 5793 5788 5784 5780 5777 5775 5772 5770 5768 5766 5764 5762 5761 5759 5757 5756 5753 5752 5750 5749 5747 5746 5745 5743 5741 5740 5739 5739 5739 5739 5738 5738 5738 5738 5737 5737 5736 5736 5735 5734
5799 5796 5792 5789 5785 5781 5778 5775 5773 5770 5768 5766 5764 5762 5760 5758 5757 5755 5753 5752 5750 5748 5746 5744 5743 5742 5741 5739 5738 5736 5735 5736 5736 5736 5736 5736 5735 5735 5735 5734 5734 5734 5733
5793 5790 5787 5784 5781 5777 5774 5772 5770 5767 5765 5763 5761 5759 5758 5756 5754 5752 5751 5749 5747 5745 5743 5742 5740 5739 5738 5736 5735 5734 5733 5732 5733 5734 5734 5734 5734 5733 5733 5733 5732 5732 5732
5785 5783 5781 5779 5776 5773 5770 5768 5766 5763 5761 5760 5758 5756 5755 5753 5751 5750 5748 5746 5745 5743 5741 5739 5737 5736 5734 5734 5733 5731 5731 5730 5730 5730 5731 5732 5732 5732 5732 5732 5731 5731 5730
5777 5778 5775 5773 5771 5768 5766 5763 5761 5759 5757 5755 5753 5752 5751 5749 5747 5745 5744 5742 5741 5740 5738 5736 5734 5732 5731 5730 5730 5729 5728 5728 5728 5728 5729 5730 5730 5731 5731 5731 5730 5730 5730
5774 5773 5771 5768 5766 5763 5760 5757 5755 5753 5751 5750 5749 5747 5745 5744 5742 5741 5739 5738 5737 5736 5735 5734 5732 5730 5729 5727 5727 5726 5726 5726 5726 5727 5727 5728 5729 5730 5730 5730 5730 5729 5729
5767 5766 5764 5763 5762 5759 5756 5753 5749 5747 5746 5745 5744 5742 5740 5739 5737 5736 5735 5733 5733 5732 5731 5730 5728 5727 5726 5725 5724 5723 5723 5724 5724 5725 5726 5727 5728 5729 5729 5730 5730 5729 5728
5759 5758 5756 5755 5754 5753 5750 5747 5744 5742 5741 5739 5738 5737 5736 5735 5733 5731 5730 5729 5728 5727 5725 5725 5724 5724 5723 5722 5722 5721 5721 5722 5722 5723 5724 5726 5727 5728 5729 5729 5729 5729 5728
5751 5750 5749 5748 5747 5747 5744 5742 5740 5738 5736 5734 5733 5732 5732 5731 5730 5727 5724 5724 5723 5722 5721 5720 5720 5719 5719 5718 5718 5718 5719 5719 5720 5721 5722 5723 5725 5727 5728 5729 5729 5729 5728
5746 5745 5745 5743 5743 5741 5739 5738 5736 5734 5731 5729 5728 5728 5727 5726 5724 5722 5719 5718 5717 5716 5716 5715 5714 5714 5714 5714 5714 5715 5716 5717 5717 5718 5719 5721 5723 5725 5727 5728 5728 5729 5728
5742 5741 5740 5740 5738 5736 5733 5732 5729 5728 5726 5724 5723 5722 5721 5719 5718 5716 5714 5713 5711 5710 5709 5709 5709 5708 5709 5709 5709 5710 5712 5713 5715 5716 5717 5719 5720 5722 5725 5726 5727 5728 5727
5737 5736 5734 5733 5732 5729 5727 5725 5722 5721 5719 5718 5717 5716 5714 5712 5711 5710 5708 5706 5705 5704 5703 5703 5703 5702 5702 5703 5704 5706 5708 5710 5712 5713 5715 5716 5718 5720 5722 5724 5726 5727 5726
5733 5731 5730 5728 5726 5724 5721 5718 5716 5714 5712 5711 5709 5708 5707 5705 5704 5702 5700 5699 5698 5697 5696 5696 5696 5696 5696 5696 5698 5701 5704 5706 5708 5709 5711 5714 5716 5717 5719 5721 5723 5725 5726
5727 5725 5724 5722 5720 5717 5714 5711 5708 5705 5704 5703 5702 5701 5699 5698 5696 5694 5693 5691 5690 5689 5688 5688 5688 5688 5689 5690 5690 5693 5697 5702 5704 5706 5708 5711 5713 5715 5717 5719 5720 5722 5724
5722 5720 5719 5717 5715 5713 5710 5707 5703 5700 5698 5696 5694 5693 5691 5689 5687 5687 5686 5684 5683 5681 5680 5679 5679 5680 5681 5683 5682 5682 5685 5691 5697 5703 5705 5707 5710 5712 5714 5716 5718 5719 5721
5718 5717 5716 5713 5710 5708 5705 5701 5697 5693 5690 5688 5686 5684 5683 5681 5680 5678 5677 5676 5675 5673 5672 5671 5671 5671 5671 5673 5674 5674 5674 5679 5685 5693 5698 5702 5705 5708 5711 5713 5715 5717 5718
5716 5714 5711 5709 5706 5702 5699 5694 5689 5684 5680 5679 5677 5675 5674 5673 5671 5670 5669 5668 5666 5665 5664 5663 5663 5663 5663 5663 5665 5668 5669 5672 5673 5680 5688 5694 5699 5702 5706 5709 5712 5714 5715
5715 5712 5708 5705 5701 5697 5693 5689 5684 5679 5675 5672 5669 5667 5665 5664 5663 5661 5660 5658 5657 5656 5655 5654 5654 5654 5655 5656 5656 5659 5661 5663 5666 5669 5675 5682 5689 5695 5700 5704 5707 5710 5713
5712 5709 5705 5700 5696 5692 5688 5683 5678 5672 5668 5664 5661 5658 5656 5655 5654 5653 5651 5649 5648 5646 5646 5645 5645 5645 5645 5647 5648 5650 5651 5653 5657 5660 5666 5671 5677 5686 5693 5698 5702 5706 5710